Location: C.E.K. Mees Observatory
(42.7003°N, 77.4088°W)
Time: 15:58:09
(UTC-04:00)

Vanguard 3 - Pass Details

Date: 28 June 2018
Orbit: 508 x 3264 km, 33.3° (Epoch: 16 July)

Event Time Altitude Azimuth Distance (km) Brightness Sun altitude
Rises 05:53:37 0° 261° (W) 3,208 9.6 2.2°
Reaches altitude 10° 05:55:54 10° 249° (WSW) 2,516 9.0 2.6°
Maximum altitude 06:01:07 30° 189° (S) 1,973 8.9 3.4°
Drops below altitude 10° 06:09:19 10° 134° (SE) 4,051 11.0 4.8°
Sets 06:14:07 0° 125° (SE) 5,560 11.8 5.5°
